Time,TemperatureF,DewpointF,PressureIn,WindDirection,WindDirectionDegrees,WindSpeedMPH,WindSpeedGustMPH,Humidity,HourlyPrecipIn,Conditions,Clouds,dailyrainin,SoftwareType,DateUTC
2013-05-02 00:03:00,55.1,40.2,30.07,ESE,108,0.0,0.0,57,0.00,,CLR,0.00,VWS V14.01,2013-05-02 07:03:00,
2013-05-02 00:08:00,54.8,39.9,30.07,ESE,105,0.0,3.8,57,0.00,,CLR,0.00,VWS V14.01,2013-05-02 07:08:00,
2013-05-02 00:13:00,54.9,40.4,30.07,East,96,0.0,3.8,58,0.00,,CLR,0.00,VWS V14.01,2013-05-02 07:13:00,
2013-05-02 00:18:00,54.7,40.2,30.07,ENE,77,0.0,3.8,58,0.00,,CLR,0.00,VWS V14.01,2013-05-02 07:18:00,
2013-05-02 00:23:00,54.5,40.0,30.07,ESE,113,0.0,3.8,58,0.00,,CLR,0.00,VWS V14.01,2013-05-02 07:23:00,
2013-05-02 00:28:00,54.3,39.8,30.07,ESE,112,0.0,3.8,58,0.00,,CLR,0.00,VWS V14.01,2013-05-02 07:28:00,
2013-05-02 00:33:00,54.0,39.6,30.08,ESE,112,0.0,1.9,58,0.00,,CLR,0.00,VWS V14.01,2013-05-02 07:33:00,
2013-05-02 00:38:00,53.8,39.8,30.08,ESE,108,0.0,1.9,59,0.00,,CLR,0.00,VWS V14.01,2013-05-02 07:38:00,
2013-05-02 00:43:00,53.6,39.6,30.08,East,96,1.9,1.9,59,0.00,,CLR,0.00,VWS V14.01,2013-05-02 07:43:00,
2013-05-02 00:48:00,53.6,39.6,30.08,East,96,0.0,1.9,59,0.00,,CLR,0.00,VWS V14.01,2013-05-02 07:48:00,
2013-05-02 00:53:00,53.2,39.3,30.08,East,96,0.0,1.9,59,0.00,,CLR,0.00,VWS V14.01,2013-05-02 07:53:00,
2013-05-02 00:58:00,52.9,39.8,30.08,East,96,0.0,1.9,61,0.00,,CLR,0.00,VWS V14.01,2013-05-02 07:58:00,
2013-05-02 01:03:00,52.6,39.5,30.08,East,96,0.0,0.0,61,0.00,,CLR,0.00,VWS V14.01,2013-05-02 08:03:00,
2013-05-02 01:08:00,52.4,38.9,30.08,ENE,78,0.0,1.9,60,0.00,,CLR,0.00,VWS V14.01,2013-05-02 08:08:00,
2013-05-02 01:13:00,52.5,39.9,30.08,ENE,78,0.0,1.9,62,0.00,,CLR,0.00,VWS V14.01,2013-05-02 08:13:00,
2013-05-02 01:18:00,52.6,39.5,30.08,ESE,104,0.0,1.9,61,0.00,,CLR,0.00,VWS V14.01,2013-05-02 08:18:00,
2013-05-02 01:23:00,52.6,40.0,30.08,East,83,0.0,3.8,62,0.00,,CLR,0.00,VWS V14.01,2013-05-02 08:23:00,
2013-05-02 01:28:00,52.6,40.0,30.08,East,84,0.0,3.8,62,0.00,,CLR,0.00,VWS V14.01,2013-05-02 08:28:00,
2013-05-02 01:33:00,52.5,39.9,30.08,East,83,1.9,1.9,62,0.00,,CLR,0.00,VWS V14.01,2013-05-02 08:33:00,
2013-05-02 01:38:00,52.4,40.2,30.08,East,84,0.0,1.9,63,0.00,,CLR,0.00,VWS V14.01,2013-05-02 08:38:00,
2013-05-02 01:43:00,52.3,40.1,30.08,East,83,1.9,1.9,63,0.00,,CLR,0.00,VWS V14.01,2013-05-02 08:43:00,
2013-05-02 01:48:00,52.3,39.3,30.08,East,83,0.0,1.9,61,0.00,,CLR,0.00,VWS V14.01,2013-05-02 08:48:00,
2013-05-02 01:53:00,52.1,38.7,30.08,ESE,103,1.9,1.9,60,0.00,,CLR,0.00,VWS V14.01,2013-05-02 08:53:00,
2013-05-02 01:59:00,52.2,38.3,30.08,ESE,105,0.0,3.8,59,0.00,,CLR,0.00,VWS V14.01,2013-05-02 08:59:00,
2013-05-02 02:04:00,52.1,38.7,30.08,ESE,106,0.0,1.9,60,0.00,,CLR,0.00,VWS V14.01,2013-05-02 09:04:00,
2013-05-02 02:09:00,51.7,38.7,30.08,ESE,105,0.0,1.9,61,0.00,,CLR,0.00,VWS V14.01,2013-05-02 09:09:00,
2013-05-02 02:14:00,51.5,38.9,30.08,ESE,109,0.0,1.9,62,0.00,,CLR,0.00,VWS V14.01,2013-05-02 09:14:00,
2013-05-02 02:19:00,51.2,39.0,30.09,ESE,108,0.0,1.9,63,0.00,,CLR,0.00,VWS V14.01,2013-05-02 09:19:00,
2013-05-02 02:29:00,50.5,38.8,30.09,ESE,108,0.0,0.0,64,0.00,,CLR,0.00,VWS V14.01,2013-05-02 09:29:00,
2013-05-02 02:34:00,50.1,38.8,30.09,ESE,108,0.0,0.0,65,0.00,,CLR,0.00,VWS V14.01,2013-05-02 09:34:00,
2013-05-02 02:39:00,49.9,38.6,30.09,ESE,108,0.0,1.9,65,0.00,,CLR,0.00,VWS V14.01,2013-05-02 09:39:00,
2013-05-02 02:44:00,49.7,38.4,30.09,ESE,108,0.0,1.9,65,0.00,,CLR,0.00,VWS V14.01,2013-05-02 09:44:00,
2013-05-02 02:49:00,49.3,38.4,30.09,ESE,108,0.0,1.9,66,0.00,,CLR,0.00,VWS V14.01,2013-05-02 09:49:00,
2013-05-02 02:54:00,49.1,38.6,30.09,ESE,108,0.0,1.9,67,0.00,,CLR,0.00,VWS V14.01,2013-05-02 09:54:00,
2013-05-02 02:59:00,48.8,38.7,30.09,ESE,108,0.0,1.9,68,0.00,,CLR,0.00,VWS V14.01,2013-05-02 09:59:00,
2013-05-02 03:04:00,48.4,38.7,30.09,ESE,108,0.0,0.0,69,0.00,,CLR,0.00,VWS V14.01,2013-05-02 10:04:00,
2013-05-02 03:09:00,48.1,38.8,30.09,ESE,108,0.0,1.9,70,0.00,,CLR,0.00,VWS V14.01,2013-05-02 10:09:00,
2013-05-02 03:14:00,48.1,39.9,30.09,NE,51,0.0,5.7,73,0.00,,CLR,0.00,VWS V14.01,2013-05-02 10:14:00,
2013-05-02 03:19:00,48.7,40.1,30.09,NE,51,0.0,5.7,72,0.00,,CLR,0.00,VWS V14.01,2013-05-02 10:19:00,
2013-05-02 03:24:00,48.8,40.2,30.09,NE,51,0.0,5.7,72,0.00,,CLR,0.00,VWS V14.01,2013-05-02 10:24:00,
2013-05-02 03:29:00,49.0,40.7,30.09,NE,51,0.0,5.7,73,0.00,,CLR,0.00,VWS V14.01,2013-05-02 10:29:00,
2013-05-02 03:34:00,49.2,40.9,30.10,ESE,108,0.0,1.9,73,0.00,,CLR,0.00,VWS V14.01,2013-05-02 10:34:00,
2013-05-02 03:39:00,49.4,41.1,30.10,ENE,78,0.0,3.8,73,0.00,,CLR,0.00,VWS V14.01,2013-05-02 10:39:00,
2013-05-02 03:44:00,49.5,41.2,30.09,ENE,66,1.9,3.8,73,0.00,,CLR,0.00,VWS V14.01,2013-05-02 10:44:00,
2013-05-02 03:49:00,49.4,41.1,30.09,ENE,65,0.0,3.8,73,0.00,,CLR,0.00,VWS V14.01,2013-05-02 10:49:00,
2013-05-02 03:54:00,49.4,41.1,30.10,ENE,67,3.8,3.8,73,0.00,,CLR,0.00,VWS V14.01,2013-05-02 10:54:00,
2013-05-02 03:59:00,49.4,41.1,30.10,East,88,1.9,3.8,73,0.00,,CLR,0.00,VWS V14.01,2013-05-02 10:59:00,
2013-05-02 04:04:00,49.4,41.1,30.10,ESE,116,0.0,5.7,73,0.00,,CLR,0.00,VWS V14.01,2013-05-02 11:04:00,
2013-05-02 04:09:00,49.4,40.8,30.09,ESE,114,0.0,5.7,72,0.00,,CLR,0.00,VWS V14.01,2013-05-02 11:09:00,
2013-05-02 04:14:00,49.3,41.0,30.09,ENE,77,0.0,5.7,73,0.00,,CLR,0.00,VWS V14.01,2013-05-02 11:14:00,
2013-05-02 04:19:00,49.2,40.9,30.10,East,91,0.0,5.7,73,0.00,,CLR,0.00,VWS V14.01,2013-05-02 11:19:00,
2013-05-02 04:24:00,49.0,40.7,30.10,ENE,75,1.9,5.7,73,0.00,,CLR,0.00,VWS V14.01,2013-05-02 11:24:00,
2013-05-02 04:29:00,48.9,40.6,30.10,ENE,75,0.0,5.7,73,0.00,,CLR,0.00,VWS V14.01,2013-05-02 11:29:00,
2013-05-02 04:34:00,48.7,40.5,30.10,East,86,0.0,1.9,73,0.00,,CLR,0.00,VWS V14.01,2013-05-02 11:34:00,
2013-05-02 04:39:00,48.6,40.7,30.10,East,86,0.0,1.9,74,0.00,,CLR,0.00,VWS V14.01,2013-05-02 11:39:00,
2013-05-02 04:44:00,48.3,40.8,30.11,East,86,0.0,1.9,75,0.00,,CLR,0.00,VWS V14.01,2013-05-02 11:44:00,
2013-05-02 04:49:00,48.2,40.3,30.10,East,86,0.0,1.9,74,0.00,,CLR,0.00,VWS V14.01,2013-05-02 11:49:00,
2013-05-02 04:54:00,48.2,40.3,30.11,ESE,105,0.0,3.8,74,0.00,,CLR,0.00,VWS V14.01,2013-05-02 11:54:00,
2013-05-02 04:59:00,48.1,40.2,30.11,ESE,104,0.0,3.8,74,0.00,,CLR,0.00,VWS V14.01,2013-05-02 11:59:00,
2013-05-02 05:04:00,48.1,40.2,30.11,ESE,106,0.0,3.8,74,0.00,,CLR,0.00,VWS V14.01,2013-05-02 12:04:00,
2013-05-02 05:09:00,48.1,40.6,30.11,ESE,103,0.0,3.8,75,0.00,,CLR,0.00,VWS V14.01,2013-05-02 12:09:00,
2013-05-02 05:14:00,48.0,40.5,30.11,ESE,103,0.0,3.8,75,0.00,,CLR,0.00,VWS V14.01,2013-05-02 12:14:00,
2013-05-02 05:20:00,47.9,40.4,30.11,ENE,75,0.0,3.8,75,0.00,,CLR,0.00,VWS V14.01,2013-05-02 12:20:00,
2013-05-02 05:25:00,47.9,40.4,30.11,ESE,104,1.9,3.8,75,0.00,,CLR,0.00,VWS V14.01,2013-05-02 12:25:00,
2013-05-02 05:30:00,48.2,40.3,30.10,East,98,0.0,0.0,74,0.00,,CLR,0.00,VWS V14.01,2013-05-02 12:30:00,
2013-05-02 05:35:00,48.2,40.3,30.11,ESE,114,0.0,5.7,74,0.00,,CLR,0.00,VWS V14.01,2013-05-02 12:35:00,
2013-05-02 05:40:00,48.3,40.8,30.11,ESE,113,0.0,5.7,75,0.00,,CLR,0.00,VWS V14.01,2013-05-02 12:40:00,
2013-05-02 05:45:00,48.0,40.1,30.11,ESE,113,0.0,5.7,74,0.00,,CLR,0.00,VWS V14.01,2013-05-02 12:45:00,
2013-05-02 05:50:00,47.9,40.7,30.11,ESE,111,0.0,5.7,76,0.00,,CLR,0.00,VWS V14.01,2013-05-02 12:50:00,
2013-05-02 05:55:00,47.7,40.5,30.11,ESE,111,0.0,5.7,76,0.00,,CLR,0.00,VWS V14.01,2013-05-02 12:55:00,
2013-05-02 06:00:00,47.5,40.7,30.11,ESE,108,0.0,0.0,77,0.00,,CLR,0.00,VWS V14.01,2013-05-02 13:00:00,
2013-05-02 06:05:00,47.2,40.4,30.11,ESE,108,0.0,1.9,77,0.00,,CLR,0.00,VWS V14.01,2013-05-02 13:05:00,
2013-05-02 06:10:00,47.0,40.2,30.11,ESE,108,0.0,1.9,77,0.00,,CLR,0.00,VWS V14.01,2013-05-02 13:10:00,
2013-05-02 06:15:00,47.0,40.2,30.12,ESE,110,0.0,1.9,77,0.00,,CLR,0.00,VWS V14.01,2013-05-02 13:15:00,
2013-05-02 06:20:00,46.9,40.1,30.12,ESE,108,0.0,1.9,77,0.00,,CLR,0.00,VWS V14.01,2013-05-02 13:20:00,
2013-05-02 06:25:00,46.8,40.0,30.12,ESE,108,0.0,1.9,77,0.00,,CLR,0.00,VWS V14.01,2013-05-02 13:25:00,
2013-05-02 06:30:00,46.6,40.1,30.12,ESE,108,0.0,0.0,78,0.00,,CLR,0.00,VWS V14.01,2013-05-02 13:30:00,
2013-05-02 06:35:00,46.3,40.2,30.13,ESE,110,0.0,0.0,79,0.00,,CLR,0.00,VWS V14.01,2013-05-02 13:35:00,
2013-05-02 06:40:00,46.2,40.4,30.12,ESE,109,0.0,0.0,80,0.00,,CLR,0.00,VWS V14.01,2013-05-02 13:40:00,
2013-05-02 06:45:00,46.0,40.2,30.13,ESE,108,0.0,0.0,80,0.00,,CLR,0.00,VWS V14.01,2013-05-02 13:45:00,
2013-05-02 06:50:00,46.0,40.5,30.13,ESE,110,0.0,0.0,81,0.00,,CLR,0.00,VWS V14.01,2013-05-02 13:50:00,
2013-05-02 06:55:00,46.3,40.5,30.13,ESE,109,0.0,0.0,80,0.00,,CLR,0.00,VWS V14.01,2013-05-02 13:55:00,
2013-05-02 07:00:00,46.5,40.7,30.13,ESE,110,0.0,0.0,80,0.00,,CLR,0.00,VWS V14.01,2013-05-02 14:00:00,
2013-05-02 07:05:00,46.6,40.1,30.13,ESE,110,0.0,0.0,78,0.00,,,0.00,VWS V14.01,2013-05-02 14:05:00,
2013-05-02 07:10:00,46.9,40.4,30.13,ESE,110,0.0,0.0,78,0.00,,,0.00,VWS V14.01,2013-05-02 14:10:00,
2013-05-02 07:15:00,47.3,40.1,30.13,ESE,108,0.0,0.0,76,0.00,,,0.00,VWS V14.01,2013-05-02 14:15:00,
2013-05-02 07:20:00,48.1,40.9,30.14,ESE,109,0.0,0.0,76,0.00,,,0.00,VWS V14.01,2013-05-02 14:20:00,
2013-05-02 07:25:00,49.1,41.5,30.14,ESE,110,0.0,1.9,75,0.00,,,0.00,VWS V14.01,2013-05-02 14:25:00,
2013-05-02 07:30:00,49.9,42.0,30.14,ESE,110,0.0,1.9,74,0.00,,,0.00,VWS V14.01,2013-05-02 14:30:00,
2013-05-02 07:35:00,50.9,42.2,30.14,ESE,110,0.0,1.9,72,0.00,,,0.00,VWS V14.01,2013-05-02 14:35:00,
2013-05-02 07:41:00,52.0,42.5,30.14,ESE,110,0.0,1.9,70,0.00,,,0.00,VWS V14.01,2013-05-02 14:41:00,
2013-05-02 07:46:00,53.3,43.4,30.14,ESE,110,0.0,1.9,69,0.00,,,0.00,VWS V14.01,2013-05-02 14:46:00,
2013-05-02 07:51:00,54.9,43.8,30.14,ESE,110,0.0,1.9,66,0.00,,,0.00,VWS V14.01,2013-05-02 14:51:00,
2013-05-02 07:56:00,56.3,43.9,30.14,ESE,115,0.0,1.9,63,0.00,,,0.00,VWS V14.01,2013-05-02 14:56:00,
2013-05-02 08:01:00,57.8,44.9,30.14,ESE,115,0.0,0.0,62,0.00,,,0.00,VWS V14.01,2013-05-02 15:01:00,
2013-05-02 08:06:00,59.3,44.5,30.14,ESE,114,0.0,1.9,58,0.00,,CLR,0.00,VWS V14.01,2013-05-02 15:06:00,
2013-05-02 08:11:00,60.6,45.3,30.13,ESE,116,0.0,1.9,57,0.00,,CLR,0.00,VWS V14.01,2013-05-02 15:11:00,
2013-05-02 08:16:00,61.7,44.9,30.13,ESE,106,0.0,1.9,54,0.00,,CLR,0.00,VWS V14.01,2013-05-02 15:16:00,
2013-05-02 08:21:00,62.6,44.8,30.13,ESE,106,0.0,1.9,52,0.00,,CLR,0.00,VWS V14.01,2013-05-02 15:21:00,
2013-05-02 08:26:00,63.4,45.5,30.13,ESE,103,0.0,1.9,52,0.00,,CLR,0.00,VWS V14.01,2013-05-02 15:26:00,
2013-05-02 08:31:00,64.0,44.5,30.14,North,9,1.9,3.8,49,0.00,,CLR,0.00,VWS V14.01,2013-05-02 15:31:00,
2013-05-02 08:36:00,63.6,45.2,30.14,NNW,346,0.0,3.8,51,0.00,,CLR,0.00,VWS V14.01,2013-05-02 15:36:00,
2013-05-02 08:41:00,63.5,45.6,30.14,West,276,1.9,5.7,52,0.00,,CLR,0.00,VWS V14.01,2013-05-02 15:41:00,
2013-05-02 08:46:00,63.8,45.3,30.14,WNW,295,0.0,5.7,51,0.00,,CLR,0.00,VWS V14.01,2013-05-02 15:46:00,
2013-05-02 08:51:00,65.2,47.2,30.14,SSW,201,0.0,5.7,52,0.00,,CLR,0.00,VWS V14.01,2013-05-02 15:51:00,
2013-05-02 08:56:00,66.5,46.2,30.14,West,264,0.0,5.7,48,0.00,,CLR,0.00,VWS V14.01,2013-05-02 15:56:00,
2013-05-02 09:01:00,67.4,45.9,30.14,SSW,210,0.0,1.9,46,0.00,,CLR,0.00,VWS V14.01,2013-05-02 16:01:00,
2013-05-02 09:06:00,68.1,47.7,30.14,SW,229,0.0,1.9,48,0.00,,CLR,0.00,VWS V14.01,2013-05-02 16:06:00,
2013-05-02 09:11:00,69.1,46.9,30.14,SSW,210,0.0,1.9,45,0.00,,CLR,0.00,VWS V14.01,2013-05-02 16:11:00,
2013-05-02 09:16:00,69.7,45.6,30.14,West,270,1.9,3.8,42,0.00,,CLR,0.00,VWS V14.01,2013-05-02 16:16:00,
2013-05-02 09:22:00,69.9,45.8,30.14,WSW,252,0.0,3.8,42,0.00,,CLR,0.00,VWS V14.01,2013-05-02 16:22:00,
2013-05-02 09:27:00,70.7,45.9,30.14,West,273,0.0,3.8,41,0.00,,CLR,0.00,VWS V14.01,2013-05-02 16:27:00,
2013-05-02 09:32:00,71.0,44.8,30.14,WNW,289,0.0,5.7,39,0.00,,CLR,0.00,VWS V14.01,2013-05-02 16:32:00,
2013-05-02 09:37:00,71.5,45.3,30.13,SW,224,0.0,5.7,39,0.00,,CLR,0.00,VWS V14.01,2013-05-02 16:37:00,
2013-05-02 09:42:00,72.5,45.5,30.14,West,263,1.9,5.7,38,0.00,,CLR,0.00,VWS V14.01,2013-05-02 16:42:00,
2013-05-02 09:47:00,73.4,46.3,30.14,West,263,0.0,5.7,38,0.00,,CLR,0.00,VWS V14.01,2013-05-02 16:47:00,
2013-05-02 09:52:00,74.1,44.0,30.14,SW,215,0.0,5.7,34,0.00,,CLR,0.00,VWS V14.01,2013-05-02 16:52:00,
2013-05-02 09:57:00,75.0,44.8,30.14,West,275,1.9,5.7,34,0.00,,CLR,0.00,VWS V14.01,2013-05-02 16:57:00,
2013-05-02 10:02:00,75.5,43.6,30.13,WNW,291,1.9,3.8,32,0.00,,CLR,0.00,VWS V14.01,2013-05-02 17:02:00,
2013-05-02 10:07:00,75.8,42.2,30.13,West,259,1.9,5.7,30,0.00,,CLR,0.00,VWS V14.01,2013-05-02 17:07:00,
2013-05-02 10:12:00,76.2,43.4,30.14,SSW,204,3.8,5.7,31,0.00,,CLR,0.00,VWS V14.01,2013-05-02 17:12:00,
2013-05-02 10:17:00,76.9,45.6,30.14,West,273,0.0,5.7,33,0.00,,CLR,0.00,VWS V14.01,2013-05-02 17:17:00,
2013-05-02 10:22:00,77.7,42.9,30.13,SW,215,1.9,5.7,29,0.00,,CLR,0.00,VWS V14.01,2013-05-02 17:22:00,
2013-05-02 10:27:00,77.9,43.1,30.13,SW,222,1.9,5.7,29,0.00,,CLR,0.00,VWS V14.01,2013-05-02 17:27:00,
2013-05-02 10:32:00,78.4,40.7,30.14,SSW,205,3.8,5.7,26,0.00,,CLR,0.00,VWS V14.01,2013-05-02 17:32:00,
2013-05-02 10:37:00,78.5,40.8,30.13,WSW,243,1.9,7.6,26,0.00,,CLR,0.00,VWS V14.01,2013-05-02 17:37:00,
2013-05-02 10:42:00,78.7,38.9,30.13,SSW,195,1.9,7.6,24,0.00,,CLR,0.00,VWS V14.01,2013-05-02 17:42:00,
2013-05-02 10:47:00,79.2,38.2,30.14,SSW,198,3.8,7.6,23,0.00,,CLR,0.00,VWS V14.01,2013-05-02 17:47:00,
2013-05-02 10:52:00,79.6,37.5,30.14,South,190,0.0,7.6,22,0.00,,CLR,0.00,VWS V14.01,2013-05-02 17:52:00,
2013-05-02 10:57:00,80.6,31.8,30.13,SSW,200,0.0,7.6,17,0.00,,CLR,0.00,VWS V14.01,2013-05-02 17:57:00,
2013-05-02 11:02:00,81.2,32.3,30.14,SSE,167,1.9,5.7,17,0.00,,CLR,0.00,VWS V14.01,2013-05-02 18:02:00,
2013-05-02 11:07:00,81.6,35.4,30.13,South,176,0.0,5.7,19,0.00,,CLR,0.00,VWS V14.01,2013-05-02 18:07:00,
2013-05-02 11:12:00,81.7,34.1,30.13,NW,318,1.9,5.7,18,0.00,,CLR,0.00,VWS V14.01,2013-05-02 18:12:00,
2013-05-02 11:17:00,81.8,39.3,30.13,West,260,1.9,5.7,22,0.00,,CLR,0.00,VWS V14.01,2013-05-02 18:17:00,
2013-05-02 11:22:00,81.6,35.4,30.13,WNW,290,3.8,5.7,19,0.00,,CLR,0.00,VWS V14.01,2013-05-02 18:22:00,
2013-05-02 11:27:00,82.0,39.4,30.13,SW,236,1.9,5.7,22,0.00,,CLR,0.00,VWS V14.01,2013-05-02 18:27:00,
2013-05-02 11:32:00,82.4,34.7,30.13,WNW,297,5.7,7.6,18,0.00,,CLR,0.00,VWS V14.01,2013-05-02 18:32:00,
2013-05-02 11:37:00,82.5,36.1,30.13,WNW,287,3.8,9.5,19,0.00,,CLR,0.00,VWS V14.01,2013-05-02 18:37:00,
2013-05-02 11:42:00,82.6,38.8,30.13,WSW,245,0.0,9.5,21,0.00,,CLR,0.00,VWS V14.01,2013-05-02 18:42:00,
2013-05-02 11:47:00,83.2,39.2,30.13,West,281,3.8,9.5,21,0.00,,CLR,0.00,VWS V14.01,2013-05-02 18:47:00,
2013-05-02 11:52:00,83.2,39.2,30.13,WNW,295,3.8,9.5,21,0.00,,CLR,0.00,VWS V14.01,2013-05-02 18:52:00,
2013-05-02 11:57:00,83.5,40.7,30.13,WSW,241,1.9,9.5,22,0.00,,CLR,0.00,VWS V14.01,2013-05-02 18:57:00,
2013-05-02 12:02:00,84.5,41.5,30.13,West,268,1.9,3.8,22,0.00,,CLR,0.00,VWS V14.01,2013-05-02 19:02:00,
2013-05-02 12:08:00,85.3,42.2,30.13,SW,218,0.0,3.8,22,0.00,,CLR,0.00,VWS V14.01,2013-05-02 19:08:00,
2013-05-02 12:13:00,85.9,42.7,30.13,West,277,1.9,3.8,22,0.00,,CLR,0.00,VWS V14.01,2013-05-02 19:13:00,
2013-05-02 12:18:00,86.5,43.2,30.12,SW,219,1.9,3.8,22,0.00,,CLR,0.00,VWS V14.01,2013-05-02 19:18:00,
2013-05-02 12:23:00,85.9,41.5,30.12,SSE,162,1.9,5.7,21,0.00,,CLR,0.00,VWS V14.01,2013-05-02 19:23:00,
2013-05-02 12:28:00,86.5,42.0,30.12,SSW,207,1.9,5.7,21,0.00,,CLR,0.00,VWS V14.01,2013-05-02 19:28:00,
2013-05-02 12:33:00,87.0,43.6,30.12,SW,214,0.0,3.8,22,0.00,,CLR,0.00,VWS V14.01,2013-05-02 19:33:00,
2013-05-02 12:38:00,87.7,41.7,30.12,SSW,205,3.8,5.7,20,0.00,,CLR,0.00,VWS V14.01,2013-05-02 19:38:00,
2013-05-02 12:43:00,87.9,43.1,30.12,SSW,203,0.0,5.7,21,0.00,,CLR,0.00,VWS V14.01,2013-05-02 19:43:00,
2013-05-02 12:48:00,88.1,39.3,30.11,East,96,1.9,7.6,18,0.00,,CLR,0.00,VWS V14.01,2013-05-02 19:48:00,
2013-05-02 12:53:00,88.7,45.0,30.11,WSW,251,1.9,7.6,22,0.00,,CLR,0.00,VWS V14.01,2013-05-02 19:53:00,
2013-05-02 12:58:00,89.1,41.5,30.11,SSW,207,3.8,7.6,19,0.00,,CLR,0.00,VWS V14.01,2013-05-02 19:58:00,
2013-05-02 13:03:00,89.3,40.3,30.11,NW,308,5.7,5.7,18,0.00,,CLR,0.00,VWS V14.01,2013-05-02 20:03:00,
2013-05-02 13:08:00,89.1,40.1,30.11,SSW,200,1.9,5.7,18,0.00,,CLR,0.00,VWS V14.01,2013-05-02 20:08:00,
2013-05-02 13:13:00,89.4,44.4,30.11,SW,222,1.9,7.6,21,0.00,,CLR,0.00,VWS V14.01,2013-05-02 20:13:00,
2013-05-02 13:18:00,90.4,43.9,30.10,WSW,239,0.0,7.6,20,0.00,,CLR,0.00,VWS V14.01,2013-05-02 20:18:00,
2013-05-02 13:23:00,90.8,40.0,30.10,SE,146,0.0,7.6,17,0.00,,CLR,0.00,VWS V14.01,2013-05-02 20:23:00,
2013-05-02 13:28:00,90.6,41.3,30.10,West,260,0.0,9.5,18,0.00,,CLR,0.00,VWS V14.01,2013-05-02 20:28:00,
2013-05-02 13:33:00,90.5,42.7,30.10,SW,221,1.9,5.7,19,0.00,,CLR,0.00,VWS V14.01,2013-05-02 20:33:00,
2013-05-02 13:38:00,90.8,40.0,30.10,South,180,1.9,7.6,17,0.00,,CLR,0.00,VWS V14.01,2013-05-02 20:38:00,
2013-05-02 13:43:00,91.2,40.3,30.10,SW,231,1.9,7.6,17,0.00,,CLR,0.00,VWS V14.01,2013-05-02 20:43:00,
2013-05-02 13:48:00,91.1,38.7,30.10,SW,222,1.9,9.5,16,0.00,,CLR,0.00,VWS V14.01,2013-05-02 20:48:00,
2013-05-02 13:53:00,91.0,40.2,30.10,WSW,252,1.9,9.5,17,0.00,,CLR,0.00,VWS V14.01,2013-05-02 20:53:00,
2013-05-02 13:58:00,90.4,38.2,30.10,West,278,0.0,9.5,16,0.00,,CLR,0.00,VWS V14.01,2013-05-02 20:58:00,
2013-05-02 14:03:00,90.8,33.2,30.10,SW,233,3.8,7.6,13,0.00,,CLR,0.00,VWS V14.01,2013-05-02 21:03:00,
2013-05-02 14:08:00,91.3,37.2,30.10,SSE,160,0.0,7.6,15,0.00,,CLR,0.00,VWS V14.01,2013-05-02 21:08:00,
2013-05-02 14:13:00,91.7,33.9,30.09,West,266,0.0,7.6,13,0.00,,CLR,0.00,VWS V14.01,2013-05-02 21:13:00,
2013-05-02 14:18:00,92.2,36.2,30.09,WNW,286,9.5,9.5,14,0.00,,CLR,0.00,VWS V14.01,2013-05-02 21:18:00,
2013-05-02 14:23:00,92.0,37.8,30.09,West,277,1.9,9.5,15,0.00,,CLR,0.00,VWS V14.01,2013-05-02 21:23:00,
2013-05-02 14:28:00,92.2,36.2,30.09,South,174,5.7,9.5,14,0.00,,CLR,0.00,VWS V14.01,2013-05-02 21:28:00,
2013-05-02 14:34:00,92.3,34.4,30.09,SW,218,0.0,7.6,13,0.00,,CLR,0.00,VWS V14.01,2013-05-02 21:34:00,
2013-05-02 14:39:00,92.6,34.6,30.09,SW,222,1.9,7.6,13,0.00,,CLR,0.00,VWS V14.01,2013-05-02 21:39:00,
2013-05-02 14:44:00,92.9,32.9,30.09,West,262,1.9,7.6,12,0.00,,CLR,0.00,VWS V14.01,2013-05-02 21:44:00,
2013-05-02 14:49:00,92.4,32.5,30.09,West,278,3.8,13.3,12,0.00,,CLR,0.00,VWS V14.01,2013-05-02 21:49:00,
2013-05-02 14:54:00,92.0,34.2,30.08,NNW,329,1.9,13.3,13,0.00,,CLR,0.00,VWS V14.01,2013-05-02 21:54:00,
2013-05-02 14:59:00,92.3,32.4,30.08,ESE,104,1.9,13.3,12,0.00,,CLR,0.00,VWS V14.01,2013-05-02 21:59:00,
2013-05-02 15:04:00,92.4,34.5,30.08,SSW,204,1.9,7.6,13,0.00,,CLR,0.00,VWS V14.01,2013-05-02 22:04:00,
2013-05-02 15:09:00,92.7,36.6,30.08,SW,231,1.9,7.6,14,0.00,,CLR,0.00,VWS V14.01,2013-05-02 22:09:00,
2013-05-02 15:14:00,93.0,33.0,30.08,West,278,3.8,7.6,12,0.00,,CLR,0.00,VWS V14.01,2013-05-02 22:14:00,
2013-05-02 15:19:00,93.2,33.1,30.08,West,260,5.7,7.6,12,0.00,,CLR,0.00,VWS V14.01,2013-05-02 22:19:00,
2013-05-02 15:24:00,93.3,33.2,30.08,WNW,290,1.9,7.6,12,0.00,,CLR,0.00,VWS V14.01,2013-05-02 22:24:00,
2013-05-02 15:29:00,93.5,39.0,30.08,SSW,194,3.8,7.6,15,0.00,,CLR,0.00,VWS V14.01,2013-05-02 22:29:00,
2013-05-02 15:34:00,93.4,35.3,30.07,SW,225,0.0,3.8,13,0.00,,CLR,0.00,VWS V14.01,2013-05-02 22:34:00,
2013-05-02 15:39:00,93.6,37.3,30.07,ENE,60,0.0,5.7,14,0.00,,CLR,0.00,VWS V14.01,2013-05-02 22:39:00,
2013-05-02 15:44:00,93.9,35.7,30.07,SW,234,0.0,5.7,13,0.00,,CLR,0.00,VWS V14.01,2013-05-02 22:44:00,
2013-05-02 15:49:00,93.6,31.2,30.07,SW,232,0.0,7.6,11,0.00,,CLR,0.00,VWS V14.01,2013-05-02 22:49:00,
2013-05-02 15:54:00,93.5,33.3,30.07,SE,141,1.9,9.5,12,0.00,,CLR,0.00,VWS V14.01,2013-05-02 22:54:00,
2013-05-02 15:59:00,93.1,35.0,30.07,SSW,201,1.9,9.5,13,0.00,,CLR,0.00,VWS V14.01,2013-05-02 22:59:00,
2013-05-02 16:04:00,93.0,38.6,30.07,SW,225,0.0,9.5,15,0.00,,,0.00,VWS V14.01,2013-05-02 23:04:00,
2013-05-02 16:09:00,93.1,36.9,30.07,West,281,3.8,9.5,14,0.00,,,0.00,VWS V14.01,2013-05-02 23:09:00,
2013-05-02 16:14:00,92.6,34.6,30.07,West,266,1.9,15.2,13,0.00,,,0.00,VWS V14.01,2013-05-02 23:14:00,
2013-05-02 16:19:00,92.2,37.9,30.07,South,177,1.9,15.2,15,0.00,,,0.00,VWS V14.01,2013-05-02 23:19:00,
2013-05-02 16:24:00,92.0,36.0,30.07,SW,235,1.9,15.2,14,0.00,,,0.00,VWS V14.01,2013-05-02 23:24:00,
2013-05-02 16:29:00,92.0,36.0,30.07,West,262,0.0,15.2,14,0.00,,,0.00,VWS V14.01,2013-05-02 23:29:00,
2013-05-02 16:34:00,92.2,36.2,30.07,WSW,252,0.0,9.5,14,0.00,,,0.00,VWS V14.01,2013-05-02 23:34:00,
2013-05-02 16:39:00,91.6,35.7,30.07,SSE,160,1.9,9.5,14,0.00,,,0.00,VWS V14.01,2013-05-02 23:39:00,
2013-05-02 16:44:00,91.3,31.6,30.07,SW,232,0.0,9.5,12,0.00,,,0.00,VWS V14.01,2013-05-02 23:44:00,
2013-05-02 16:49:00,91.1,33.5,30.06,WSW,237,0.0,9.5,13,0.00,,,0.00,VWS V14.01,2013-05-02 23:49:00,
2013-05-02 16:54:00,91.5,31.8,30.07,SSE,162,1.9,9.5,12,0.00,,,0.00,VWS V14.01,2013-05-02 23:54:00,
2013-05-02 16:59:00,91.1,24.5,30.06,SSW,193,1.9,3.8,9,0.00,,,0.00,VWS V14.01,2013-05-02 23:59:00,
2013-05-02 17:04:00,90.7,26.7,30.06,SW,235,0.0,5.7,10,0.00,,,0.00,VWS V14.01,2013-05-03 00:04:00,
2013-05-02 17:10:00,90.7,33.2,30.06,SSW,204,0.0,5.7,13,0.00,,,0.00,VWS V14.01,2013-05-03 00:10:00,
2013-05-02 17:15:00,90.4,30.9,30.06,South,191,0.0,9.5,12,0.00,,,0.00,VWS V14.01,2013-05-03 00:15:00,
2013-05-02 17:20:00,90.6,26.6,30.06,SSW,197,3.8,9.5,10,0.00,,,0.00,VWS V14.01,2013-05-03 00:20:00,
2013-05-02 17:25:00,90.7,31.2,30.06,WSW,243,0.0,9.5,12,0.00,,,0.00,VWS V14.01,2013-05-03 00:25:00,
2013-05-02 17:30:00,90.7,29.0,30.06,SSW,198,1.9,3.8,11,0.00,,,0.00,VWS V14.01,2013-05-03 00:30:00,
2013-05-02 17:35:00,90.6,24.1,30.06,SW,225,3.8,5.7,9,0.00,,,0.00,VWS V14.01,2013-05-03 00:35:00,
2013-05-02 17:40:00,90.2,28.6,30.06,WSW,246,1.9,5.7,11,0.00,,,0.00,VWS V14.01,2013-05-03 00:40:00,
2013-05-02 17:45:00,90.3,26.4,30.06,WNW,288,5.7,5.7,10,0.00,,,0.00,VWS V14.01,2013-05-03 00:45:00,
2013-05-02 17:50:00,89.8,26.0,30.06,WSW,240,0.0,7.6,10,0.00,,,0.00,VWS V14.01,2013-05-03 00:50:00,
2013-05-02 17:55:00,89.7,26.0,30.06,SSW,205,3.8,7.6,10,0.00,,,0.00,VWS V14.01,2013-05-03 00:55:00,
2013-05-02 18:00:00,89.6,25.9,30.06,WNW,295,7.6,7.6,10,0.00,,,0.00,VWS V14.01,2013-05-03 01:00:00,
2013-05-02 18:05:00,89.4,25.7,30.06,West,278,3.8,7.6,10,0.00,,,0.00,VWS V14.01,2013-05-03 01:05:00,
2013-05-02 18:10:00,88.6,27.4,30.06,North,4,1.9,13.3,11,0.00,,,0.00,VWS V14.01,2013-05-03 01:10:00,
2013-05-02 18:15:00,88.4,25.0,30.06,WSW,248,0.0,13.3,10,0.00,,,0.00,VWS V14.01,2013-05-03 01:15:00,
2013-05-02 18:20:00,88.5,27.4,30.06,West,271,1.9,13.3,11,0.00,,,0.00,VWS V14.01,2013-05-03 01:20:00,
2013-05-02 18:25:00,88.6,25.1,30.06,West,266,0.0,13.3,10,0.00,,,0.00,VWS V14.01,2013-05-03 01:25:00,
2013-05-02 18:30:00,88.6,25.1,30.06,SSW,204,0.0,1.9,10,0.00,,,0.00,VWS V14.01,2013-05-03 01:30:00,
2013-05-02 18:35:00,88.4,25.0,30.06,SSW,195,0.0,1.9,10,0.00,,,0.00,VWS V14.01,2013-05-03 01:35:00,
2013-05-02 18:40:00,87.7,28.9,30.06,SW,228,3.8,3.8,12,0.00,,,0.00,VWS V14.01,2013-05-03 01:40:00,
2013-05-02 18:45:00,87.2,30.4,30.06,South,186,0.0,5.7,13,0.00,,,0.00,VWS V14.01,2013-05-03 01:45:00,
2013-05-02 18:50:00,86.5,33.4,30.06,West,273,0.0,5.7,15,0.00,,,0.00,VWS V14.01,2013-05-03 01:50:00,
2013-05-02 18:55:00,86.1,33.1,30.05,SSW,211,3.8,5.7,15,0.00,,,0.00,VWS V14.01,2013-05-03 01:55:00,
2013-05-02 19:00:00,85.3,34.1,30.05,South,190,0.0,1.9,16,0.00,,,0.00,VWS V14.01,2013-05-03 02:00:00,
2013-05-02 19:05:00,84.8,36.6,30.05,South,173,0.0,3.8,18,0.00,,,0.00,VWS V14.01,2013-05-03 02:05:00,
2013-05-02 19:10:00,84.5,35.0,30.05,South,190,0.0,3.8,17,0.00,,,0.00,VWS V14.01,2013-05-03 02:10:00,
2013-05-02 19:15:00,84.1,33.1,30.05,SW,235,0.0,3.8,16,0.00,,,0.00,VWS V14.01,2013-05-03 02:15:00,
2013-05-02 19:20:00,83.1,33.8,30.05,SW,233,1.9,3.8,17,0.00,,,0.00,VWS V14.01,2013-05-03 02:20:00,
2013-05-02 19:25:00,81.7,32.7,30.05,South,182,0.0,5.7,17,0.00,,,0.00,VWS V14.01,2013-05-03 02:25:00,
2013-05-02 19:30:00,80.6,31.8,30.05,South,182,0.0,0.0,17,0.00,,,0.00,VWS V14.01,2013-05-03 02:30:00,
2013-05-02 19:35:00,79.3,32.2,30.05,SW,214,0.0,3.8,18,0.00,,,0.00,VWS V14.01,2013-05-03 02:35:00,
2013-05-02 19:40:00,78.1,32.5,30.05,SW,219,0.0,3.8,19,0.00,,,0.00,VWS V14.01,2013-05-03 02:40:00,
2013-05-02 19:45:00,77.0,31.6,30.05,SW,219,0.0,3.8,19,0.00,,,0.00,VWS V14.01,2013-05-03 02:45:00,
2013-05-02 19:50:00,75.9,33.2,30.05,SW,219,0.0,3.8,21,0.00,,,0.00,VWS V14.01,2013-05-03 02:50:00,
2013-05-02 19:55:00,74.9,32.4,30.05,SW,219,0.0,3.8,21,0.00,,,0.00,VWS V14.01,2013-05-03 02:55:00,
2013-05-02 20:00:00,74.0,32.8,30.05,SW,219,0.0,0.0,22,0.00,,,0.00,VWS V14.01,2013-05-03 03:00:00,
2013-05-02 20:05:00,73.3,33.3,30.05,SW,219,0.0,0.0,23,0.00,,,0.00,VWS V14.01,2013-05-03 03:05:00,
2013-05-02 20:11:00,72.5,32.6,30.06,SW,219,0.0,0.0,23,0.00,,,0.00,VWS V14.01,2013-05-03 03:11:00,
2013-05-02 20:16:00,71.6,32.9,30.06,SW,219,0.0,0.0,24,0.00,,,0.00,VWS V14.01,2013-05-03 03:16:00,
2013-05-02 20:21:00,70.8,33.3,30.06,SW,219,0.0,0.0,25,0.00,,,0.00,VWS V14.01,2013-05-03 03:21:00,
2013-05-02 20:26:00,70.2,32.8,30.06,SW,219,0.0,0.0,25,0.00,,,0.00,VWS V14.01,2013-05-03 03:26:00,
2013-05-02 20:31:00,69.8,33.4,30.06,SW,219,0.0,0.0,26,0.00,,,0.00,VWS V14.01,2013-05-03 03:31:00,
2013-05-02 20:36:00,69.3,33.9,30.06,SW,219,0.0,0.0,27,0.00,,,0.00,VWS V14.01,2013-05-03 03:36:00,
2013-05-02 20:41:00,68.9,32.6,30.06,SW,219,0.0,1.9,26,0.00,,,0.00,VWS V14.01,2013-05-03 03:41:00,
2013-05-02 20:46:00,68.7,31.5,30.06,SW,214,0.0,1.9,25,0.00,,,0.00,VWS V14.01,2013-05-03 03:46:00,
2013-05-02 20:51:00,68.7,30.5,30.06,East,99,0.0,1.9,24,0.00,,,0.00,VWS V14.01,2013-05-03 03:51:00,
2013-05-02 20:56:00,68.8,30.6,30.06,ESE,113,0.0,1.9,24,0.00,,,0.00,VWS V14.01,2013-05-03 03:56:00,
2013-05-02 21:01:00,68.5,30.3,30.07,ESE,113,0.0,1.9,24,0.00,,,0.00,VWS V14.01,2013-05-03 04:01:00,
2013-05-02 21:02:00,68.4,31.2,30.06,ESE,113,0.0,1.9,25,0.00,,,0.00,VWS V14.01,2013-05-03 04:02:00,
2013-05-02 21:03:00,68.3,31.1,30.06,ESE,113,0.0,1.9,25,0.00,,,0.00,VWS V14.01,2013-05-03 04:03:00,
2013-05-02 21:04:00,68.2,30.1,30.06,SE,124,1.9,3.8,24,0.00,,,0.00,VWS V14.01,2013-05-03 04:04:00,
2013-05-02 21:05:00,68.2,30.1,30.06,SE,124,1.9,3.8,24,0.00,,,0.00,VWS V14.01,2013-05-03 04:05:00,
2013-05-02 21:10:00,68.3,31.1,30.07,ESE,110,1.9,3.8,25,0.00,,,0.00,VWS V14.01,2013-05-03 04:10:00,
2013-05-02 21:15:00,68.4,31.2,30.07,East,101,1.9,5.7,25,0.00,,,0.00,VWS V14.01,2013-05-03 04:15:00,
2013-05-02 21:20:00,68.3,32.1,30.07,NE,51,0.0,5.7,26,0.00,,,0.00,VWS V14.01,2013-05-03 04:20:00,
2013-05-02 21:25:00,68.0,31.9,30.06,NE,53,0.0,5.7,26,0.00,,,0.00,VWS V14.01,2013-05-03 04:25:00,
2013-05-02 21:30:00,67.7,31.6,30.07,ESE,118,0.0,1.9,26,0.00,,,0.00,VWS V14.01,2013-05-03 04:30:00,
2013-05-02 21:35:00,67.3,32.2,30.07,East,97,0.0,3.8,27,0.00,,,0.00,VWS V14.01,2013-05-03 04:35:00,
2013-05-02 21:40:00,67.1,32.9,30.07,East,96,1.9,3.8,28,0.00,,,0.00,VWS V14.01,2013-05-03 04:40:00,
2013-05-02 21:45:00,66.8,32.7,30.07,ESE,110,0.0,3.8,28,0.00,,,0.00,VWS V14.01,2013-05-03 04:45:00,
2013-05-02 21:50:00,66.4,33.2,30.07,ESE,110,1.9,3.8,29,0.00,,,0.00,VWS V14.01,2013-05-03 04:50:00,
2013-05-02 21:55:00,66.0,33.7,30.07,ESE,110,0.0,3.8,30,0.00,,,0.00,VWS V14.01,2013-05-03 04:55:00,
2013-05-02 22:00:00,65.5,34.1,30.07,ESE,110,1.9,1.9,31,0.00,,,0.00,VWS V14.01,2013-05-03 05:00:00,
2013-05-02 22:05:00,65.0,34.5,30.07,ESE,105,1.9,1.9,32,0.00,,,0.00,VWS V14.01,2013-05-03 05:05:00,
2013-05-02 22:10:00,64.6,34.1,30.07,ESE,105,0.0,1.9,32,0.00,,,0.00,VWS V14.01,2013-05-03 05:10:00,
2013-05-02 22:15:00,64.2,33.8,30.07,ESE,107,0.0,1.9,32,0.00,,,0.00,VWS V14.01,2013-05-03 05:15:00,
2013-05-02 22:20:00,63.9,35.0,30.07,ESE,105,1.9,1.9,34,0.00,,,0.00,VWS V14.01,2013-05-03 05:20:00,
2013-05-02 22:25:00,63.7,34.8,30.07,ESE,113,0.0,3.8,34,0.00,,,0.00,VWS V14.01,2013-05-03 05:25:00,
2013-05-02 22:30:00,63.5,34.7,30.08,SE,133,0.0,1.9,34,0.00,,,0.00,VWS V14.01,2013-05-03 05:30:00,
2013-05-02 22:35:00,63.4,35.3,30.07,ESE,122,0.0,5.7,35,0.00,,,0.00,VWS V14.01,2013-05-03 05:35:00,
2013-05-02 22:40:00,63.2,35.8,30.07,ESE,117,0.0,5.7,36,0.00,,,0.00,VWS V14.01,2013-05-03 05:40:00,
2013-05-02 22:45:00,62.9,36.2,30.07,ESE,117,0.0,5.7,37,0.00,,,0.00,VWS V14.01,2013-05-03 05:45:00,
2013-05-02 22:50:00,62.6,36.7,30.07,ESE,106,0.0,5.7,38,0.00,,,0.00,VWS V14.01,2013-05-03 05:50:00,
2013-05-02 22:56:00,62.3,36.4,30.07,SE,127,0.0,5.7,38,0.00,,,0.00,VWS V14.01,2013-05-03 05:56:00,
2013-05-02 23:01:00,62.0,36.8,30.07,SE,129,3.8,3.8,39,0.00,,,0.00,VWS V14.01,2013-05-03 06:01:00,
2013-05-02 23:06:00,61.8,36.6,30.07,ESE,120,1.9,5.7,39,0.00,,,0.00,VWS V14.01,2013-05-03 06:06:00,
2013-05-02 23:11:00,61.6,37.1,30.07,ESE,117,3.8,5.7,40,0.00,,,0.00,VWS V14.01,2013-05-03 06:11:00,
2013-05-02 23:16:00,61.4,36.9,30.07,ESE,113,5.7,5.7,40,0.00,,,0.00,VWS V14.01,2013-05-03 06:16:00,
2013-05-02 23:21:00,61.2,36.7,30.07,ESE,111,3.8,5.7,40,0.00,,,0.00,VWS V14.01,2013-05-03 06:21:00,
2013-05-02 23:26:00,61.0,37.2,30.07,East,96,0.0,5.7,41,0.00,,,0.00,VWS V14.01,2013-05-03 06:26:00,
2013-05-02 23:31:00,60.7,36.9,30.07,ESE,115,0.0,1.9,41,0.00,,,0.00,VWS V14.01,2013-05-03 06:31:00,
2013-05-02 23:36:00,60.3,37.1,30.07,ESE,102,1.9,5.7,42,0.00,,,0.00,VWS V14.01,2013-05-03 06:36:00,
2013-05-02 23:41:00,60.0,37.5,30.07,ESE,103,0.0,5.7,43,0.00,,,0.00,VWS V14.01,2013-05-03 06:41:00,
2013-05-02 23:46:00,59.7,37.2,30.07,ESE,114,3.8,5.7,43,0.00,,,0.00,VWS V14.01,2013-05-03 06:46:00,
2013-05-02 23:51:00,59.7,37.8,30.07,ESE,117,1.9,5.7,44,0.00,,,0.00,VWS V14.01,2013-05-03 06:51:00,
2013-05-02 23:56:00,59.5,37.6,30.06,ESE,114,1.9,5.7,44,0.00,,,0.00,VWS V14.01,2013-05-03 06:56:00,